• In Hungary
  • List of Countries
  • For 7 days
  • Water Temperature
  • Satellite Maps
  • Weather Map
  • News
  • Weather Widgets
  • user-avatar
    Login

    Hourly Weather Santa Eularia des Riu

    Today, 24 September, Monday

    Time Temperature Precipitation Wind Pressure Humidity
    00:00 +27°C° 0 mm 3 mps 760 mmHg 67%
    01:00 +27°C° 0 mm 2 mps 760 mmHg 67%
    02:00 +27°C° 0 mm 2 mps 760 mmHg 67%
    03:00 +26°C° 0 mm 1 mps 760 mmHg 67%
    04:00 +26°C° 0 mm 1 mps 760 mmHg 68%
    05:00 +26°C° 0 mm 1 mps 760 mmHg 69%
    06:00 +26°C° 0 mm 2 mps 760 mmHg 69%
    07:00 +27°C° 0 mm 2 mps 761 mmHg 66%
    08:00 +28°C° 0 mm 2 mps 761 mmHg 63%
    09:00 +29°C° 0 mm 2 mps 761 mmHg 60%
    10:00 +29°C° 0 mm 3 mps 761 mmHg 60%
    11:00 +29°C° 0 mm 3 mps 761 mmHg 59%
    12:00 +30°C° 0 mm 3 mps 762 mmHg 59%
    13:00 +30°C° 0 mm 3 mps 761 mmHg 59%
    14:00 +29°C° 0 mm 3 mps 761 mmHg 60%
    15:00 +29°C° 0 mm 3 mps 761 mmHg 61%
    16:00 +29°C° 0 mm 4 mps 761 mmHg 63%
    17:00 +28°C° 0 mm 4 mps 761 mmHg 66%
    18:00 +28°C° 0 mm 4 mps 761 mmHg 68%
    19:00 +27°C° 0 mm 5 mps 761 mmHg 71%
    20:00 +27°C° 0 mm 5 mps 762 mmHg 74%
    21:00 +27°C° 0 mm 6 mps 762 mmHg 77%
    22:00 +27°C° 0.1 mm 6 mps 762 mmHg 77%
    23:00 +26°C° 0.1 mm 7 mps 762 mmHg 78%

    Tomorrow, 25 September, Tuesday

    Time Temperature Precipitation Wind Pressure Humidity
    00:00 +26°C° 0.1 mm 7 mps 762 mmHg 79%
    01:00 +26°C° 0.1 mm 7 mps 762 mmHg 74%
    02:00 +26°C° 0.1 mm 8 mps 762 mmHg 68%
    03:00 +26°C° 0.1 mm 8 mps 762 mmHg 63%
    04:00 +26°C° 0 mm 8 mps 762 mmHg 63%
    05:00 +26°C° 0 mm 8 mps 762 mmHg 62%
    06:00 +24°C° 0 mm 8 mps 763 mmHg 62%
    07:00 +26°C° 0 mm 8 mps 763 mmHg 61%
    08:00 +26°C° 0 mm 8 mps 763 mmHg 60%
    09:00 +26°C° 0 mm 8 mps 764 mmHg 58%
    10:00 +26°C° 0 mm 7 mps 764 mmHg 58%
    11:00 +27°C° 0 mm 7 mps 764 mmHg 57%
    12:00 +27°C° 0 mm 7 mps 764 mmHg 56%
    13:00 +27°C° 0 mm 7 mps 764 mmHg 60%
    14:00 +27°C° 0 mm 7 mps 763 mmHg 64%
    15:00 +26°C° 0 mm 7 mps 763 mmHg 68%
    16:00 +26°C° 0 mm 7 mps 763 mmHg 69%
    17:00 +26°C° 0 mm 7 mps 763 mmHg 70%
    18:00 +26°C° 0 mm 7 mps 763 mmHg 70%
    19:00 +26°C° 0 mm 7 mps 763 mmHg 71%
    20:00 +26°C° 0 mm 7 mps 764 mmHg 72%
    21:00 +26°C° 0 mm 7 mps 764 mmHg 73%
    22:00 +26°C° 0.1 mm 7 mps 764 mmHg 73%
    23:00 +26°C° 0.1 mm 7 mps 764 mmHg 73%

    Day after tomorrow, 26 September, Wednesday

    Time Temperature Precipitation Wind Pressure Humidity
    00:00 +24°C° 0.1 mm 7 mps 764 mmHg 73%
    01:00 +24°C° 0.4 mm 7 mps 764 mmHg 74%
    02:00 +24°C° 0.4 mm 7 mps 764 mmHg 75%
    03:00 +24°C° 0.4 mm 8 mps 763 mmHg 76%
    04:00 +24°C° 0.3 mm 8 mps 764 mmHg 75%
    05:00 +24°C° 0.3 mm 8 mps 764 mmHg 75%
    06:00 +24°C° 0.3 mm 8 mps 764 mmHg 74%
    07:00 +26°C° 0.1 mm 9 mps 764 mmHg 72%
    08:00 +26°C° 0.1 mm 9 mps 764 mmHg 69%
    09:00 +27°C° 0.1 mm 9 mps 765 mmHg 67%
    10:00 +27°C° 0.1 mm 9 mps 765 mmHg 67%
    11:00 +28°C° 0.1 mm 9 mps 765 mmHg 67%
    12:00 +28°C° 0.1 mm 9 mps 765 mmHg 67%
    13:00 +28°C° 0.3 mm 8 mps 765 mmHg 67%
    14:00 +28°C° 0.3 mm 8 mps 765 mmHg 67%
    15:00 +28°C° 0.3 mm 8 mps 765 mmHg 67%
    16:00 +27°C° 0.5 mm 8 mps 765 mmHg 69%
    17:00 +27°C° 0.5 mm 8 mps 765 mmHg 72%
    18:00 +26°C° 0.5 mm 8 mps 765 mmHg 74%
    19:00 +26°C° 0.7 mm 8 mps 765 mmHg 74%
    20:00 +26°C° 0.7 mm 8 mps 766 mmHg 74%
    21:00 +26°C° 0.7 mm 8 mps 766 mmHg 73%
    22:00 +26°C° 0.2 mm 8 mps 766 mmHg 73%
    23:00 +26°C° 0.2 mm 8 mps 766 mmHg 73%

    27 September, Thursday

    Time Temperature Precipitation Wind Pressure Humidity
    00:00 +26°C° 0.2 mm 8 mps 766 mmHg 73%
    01:00 +26°C° 0.1 mm 8 mps 765 mmHg 73%
    02:00 +26°C° 0.1 mm 8 mps 765 mmHg 74%
    03:00 +26°C° 0.1 mm 8 mps 765 mmHg 74%
    04:00 +26°C° 0.1 mm 8 mps 765 mmHg 74%
    05:00 +26°C° 0.1 mm 8 mps 765 mmHg 74%
    06:00 +26°C° 0.1 mm 8 mps 765 mmHg 74%
    07:00 +26°C° 0.1 mm 8 mps 765 mmHg 73%
    08:00 +27°C° 0.1 mm 8 mps 765 mmHg 72%
    09:00 +27°C° 0.1 mm 8 mps 766 mmHg 71%
    10:00 +27°C° 0.1 mm 7 mps 766 mmHg 70%
    11:00 +27°C° 0.1 mm 7 mps 766 mmHg 69%
    12:00 +28°C° 0.1 mm 7 mps 765 mmHg 68%
    13:00 +28°C° 0.1 mm 6 mps 765 mmHg 68%
    14:00 +28°C° 0.1 mm 6 mps 765 mmHg 68%
    15:00 +28°C° 0.1 mm 6 mps 764 mmHg 69%
    16:00 +27°C° 0 mm 6 mps 764 mmHg 70%
    17:00 +27°C° 0 mm 5 mps 764 mmHg 72%
    18:00 +26°C° 0 mm 5 mps 764 mmHg 74%
    19:00 +26°C° 0 mm 5 mps 764 mmHg 74%
    20:00 +26°C° 0 mm 4 mps 764 mmHg 73%
    21:00 +26°C° 0 mm 4 mps 764 mmHg 73%
    22:00 +26°C° 0 mm 3 mps 764 mmHg 72%
    23:00 +26°C° 0 mm 3 mps 763 mmHg 71%

    28 September, Friday

    Time Temperature Precipitation Wind Pressure Humidity
    00:00 +25°C° 0 mm 3 mps 763 mmHg 70%
    01:00 +25°C° 0 mm 2 mps 762 mmHg 71%
    02:00 +25°C° 0 mm 2 mps 762 mmHg 72%
    03:00 +25°C° 0 mm 2 mps 761 mmHg 73%
    04:00 +24°C° 0 mm 2 mps 761 mmHg 73%
    05:00 +24°C° 0 mm 2 mps 761 mmHg 74%
    06:00 +24°C° 0 mm 2 mps 761 mmHg 74%
    07:00 +25°C° 0 mm 2 mps 761 mmHg 71%
    08:00 +26°C° 0 mm 2 mps 761 mmHg 67%
    09:00 +27°C° 0 mm 2 mps 762 mmHg 63%
    10:00 +27°C° 0 mm 1 mps 761 mmHg 61%
    11:00 +28°C° 0 mm 1 mps 761 mmHg 58%
    12:00 +28°C° 0 mm 1 mps 761 mmHg 56%
    13:00 +28°C° 0 mm 1 mps 760 mmHg 56%
    14:00 +28°C° 0 mm 1 mps 760 mmHg 56%
    15:00 +28°C° 0 mm 1 mps 759 mmHg 56%
    16:00 +27°C° 0 mm 2 mps 759 mmHg 58%
    17:00 +27°C° 0 mm 2 mps 759 mmHg 60%
    18:00 +26°C° 0 mm 2 mps 759 mmHg 62%
    19:00 +26°C° 0 mm 3 mps 759 mmHg 62%
    20:00 +26°C° 0 mm 3 mps 759 mmHg 62%
    21:00 +26°C° 0 mm 3 mps 759 mmHg 62%
    22:00 +26°C° 0 mm 3 mps 759 mmHg 61%
    23:00 +25°C° 0 mm 3 mps 759 mmHg 61%

    29 September, Saturday

    Time Temperature Precipitation Wind Pressure Humidity
    00:00 +25°C° 0 mm 3 mps 759 mmHg 60%
    01:00 +25°C° 0 mm 3 mps 758 mmHg 60%
    02:00 +25°C° 0 mm 2 mps 758 mmHg 61%
    03:00 +25°C° 0 mm 2 mps 758 mmHg 61%
    04:00 +25°C° 0 mm 2 mps 758 mmHg 61%
    05:00 +25°C° 0 mm 2 mps 758 mmHg 62%
    06:00 +24°C° 0 mm 1 mps 758 mmHg 62%
    07:00 +25°C° 0 mm 2 mps 759 mmHg 60%
    08:00 +26°C° 0 mm 2 mps 759 mmHg 57%
    09:00 +27°C° 0 mm 2 mps 759 mmHg 54%
    10:00 +27°C° 0 mm 3 mps 759 mmHg 53%
    11:00 +28°C° 0 mm 3 mps 759 mmHg 52%
    12:00 +28°C° 0 mm 3 mps 759 mmHg 51%
    13:00 +28°C° 0 mm 3 mps 758 mmHg 52%
    14:00 +28°C° 0 mm 3 mps 758 mmHg 52%
    15:00 +28°C° 0 mm 3 mps 758 mmHg 53%
    16:00 +27°C° 0 mm 3 mps 758 mmHg 55%
    17:00 +27°C° 0 mm 3 mps 758 mmHg 57%
    18:00 +26°C° 0 mm 3 mps 758 mmHg 59%
    19:00 +26°C° 0 mm 3 mps 758 mmHg 60%
    20:00 +26°C° 0 mm 4 mps 759 mmHg 60%
    21:00 +26°C° 0 mm 4 mps 759 mmHg 61%
    22:00 +26°C° 0 mm 4 mps 759 mmHg 62%
    23:00 +25°C° 0 mm 4 mps 758 mmHg 63%
    Show more

    3.3.7123123